Flag for Canada Weather past 2 weeks in Edmundston, New Brunswick, Canada

Now
19 °F

Cold.


Feels Like: 13 °F
Forecast: 8 / 22 °F
Wind: 3 mph from Southeast

Location: St Leonard

Current Time: Mar 2, 2015 at 1:39:42 AM

Latest Report: Mar 2, 2015 at 1:00 AM


Visibility: N/A

Pressure: 30.04 "Hg

Humidity: 63%

Dew point: 8 °F

Location of EdmundstonLocation

Historic Weather in Edmundston — Graph

°F

Edmundston temperature yesterday

Maximum temperature yesterday: 24 °F (at 4:00 PM)
Minimum temperature yesterday: 1 °F (at 6:00 AM)
Average temperature yesterday: 14 °F

Past Weeks' High & Low Weather Summary

 TemperatureHumidityPressure
High27 °F (Feb 22, 4:00 PM)100% (Feb 22, 5:00 AM)30.60 "Hg (Feb 22, 5:00 AM)
Low-17 °F (Feb 27, 7:00 AM)33% (Feb 28, 3:00 PM)29.23 "Hg (Feb 20, 4:00 AM)
Average6 °F74%29.95 "Hg
* Reported Feb 14 11:00 PM — Mar 1 11:00 PM, Edmundston, Weather by CustomWeather, © 2015

Note: Actual official high and low records may vary slightly from our data, if they occured in-between our weather recording intervals... More about our weather records

Advertising

Edmundston weather history for previous 24 hours

 ConditionsComfort  
Time TempWeatherWind HumidityBarometerVisibility
11:00 PM
Sun, Mar 1
20 °FCold.5 mph55%30.11 "HgN/A
10:00 PM20 °FCold.6 mph54%30.15 "HgN/A
9:00 PM21 °FCold.6 mph57%30.19 "HgN/A
8:00 PM22 °FCold.6 mph48%30.23 "HgN/A
7:00 PM22 °FCold.6 mph49%30.27 "HgN/A
6:00 PM22 °FCold.6 mph48%30.28 "HgN/A
5:00 PM24 °FCold.6 mph47%30.30 "HgN/A
4:00 PM24 °FCold.9 mph50%30.34 "HgN/A
3:00 PM22 °FCold.8 mph52%30.38 "HgN/A
2:00 PM21 °FCold.7 mph55%30.43 "HgN/A
1:00 PM19 °FCold.7 mph59%30.48 "HgN/A
12:00 PM17 °FCold.3 mph62%30.52 "HgN/A
11:00 AM18 °FCold.5 mph54%30.55 "HgN/A
10:00 AM12 °FCold.2 mph67%30.56 "HgN/A
9:00 AM7 °FFrigid.2 mph75%30.57 "HgN/A
8:00 AM2 °FFrigid.3 mph82%30.60 "HgN/A
7:00 AM1 °FFrigid.3 mph85%30.59 "HgN/A
6:00 AM1 °FFrigid.2 mph84%30.60 "HgN/A
5:00 AM2 °FFrigid.3 mph82%30.59 "HgN/A
4:00 AM4 °FFrigid.3 mph75%30.59 "HgN/A
3:00 AM2 °FFrigid.No wind94%30.58 "HgN/A
2:00 AM6 °FFrigid.2 mph73%30.59 "HgN/A
1:00 AM6 °FFrigid.1 mph73%30.57 "HgN/A
Weather by CustomWeather, © 2015

See weather overviewHow to use our weather pages